Regional Weather Roundup
Issued by NWS Burlington, VT

Home | Current Version | Previous Version | Text Only | Print | Product List | Glossary On
Versions: 1 2 3 4 5 6 7 8 9 10 11 12 13 14 15 16 17 18 19 20 21 22 23 24 25 26 27 28 29 30 31 32 33 34 35 36 37 38 39 40 41 42 43 44 45 46 47 48 49 50
000
ASUS41 KBTV 250330
RWRBTV
VERMONT REGIONAL WEATHER ROUNDUP
NATIONAL WEATHER SERVICE BURLINGTON VT
1100 PM EDT FRI MAY 24 2019

NOTE: "FAIR" INDICATES FEW OR NO CLOUDS BELOW 12,000 FEET WITH NO
SIGNIFICANT WEATHER AND/OR OBSTRUCTIONS TO VISIBILITY.

* THESE REPORTS ARE NOT UNDER NWS QUALITY CONTROL AND/OR DO NOT
  REPORT WEATHER SUCH AS PRECIPITATION AND FOG.

VTZ001>019-250400-
_____VERMONT_____


CITY           SKY/WX    TMP DP  RH WIND       PRES   REMARKS
BURLINGTON     FAIR      51  48  89 CALM      30.15R
MONTPELIER     FAIR      47  44  90 CALM      30.19R
MORRISVILLE    FAIR      43  42  97 S3        30.16R
ST. JOHNSBURY*   N/A     48  47  96 MISG      30.13R
LYNDONVILLE*   FAIR      47  44  91 CALM      30.13R
MIDDLEBURY*    FAIR      48  47  99 CALM      30.14S
RUTLAND*       MOCLDY    48  48 100 SE3       30.16R
SPRINGFIELD    FAIR      51  47  86 N5        30.14R
NEWPORT*       FAIR      46  46 100 CALM      30.15S
BENNINGTON     FAIR      52  48  86 SW3       30.15R
ISLAND POND*     N/A     39 N/A N/A CALM        N/A
GALLUP MILLS*    N/A     39 N/A N/A MISG        N/A
LAKE EDEN*       N/A     43 N/A N/A CALM        N/A
MT. MANSFIELD*   N/A     46 N/A N/A NW5         N/A

_____LAKE CHAMPLAIN_____


CITY           SKY/WX    TMP DP  RH WIND       PRES   REMARKS
BURTON ISLAND*   N/A     54  50  87 S3          N/A
COLCHESTER RF*   N/A     52  50  93 S3          N/A
DIAMOND ISL*     N/A     54  50  87 NE2         N/A

$$

NYZ007-026>031-035-052-083-087-250400-
_____NORTHERN NEW YORK_____


CITY           SKY/WX    TMP DP  RH WIND       PRES   REMARKS
PLATTSBURGH    FOG       46  45  96 CALM      30.13F VSB 1/2
SARANAC LAKE   FOG       42  41  96 CALM      30.14F VSB 1/4
MASSENA        FAIR      49  47  93 CALM      30.14F
OGDENSBURG*    CLOUDY    50  48  93 CALM      30.11S
POTSDAM*       CLOUDY    50  48  93 S3        30.14S FOG
WATERTOWN      FAIR      51  49  92 CALM      30.14S
FT DRUM        FAIR      52  50  91 SE5       30.13F
ALBANY         CLOUDY    60  48  64 CALM      30.16R
GLENS FALLS    FAIR      50  47  89 CALM      30.15R

$$
NHZ002-005-011-250400-
_____NEW HAMPSHIRE_____


CITY           SKY/WX    TMP DP  RH WIND       PRES   REMARKS
LEBANON        FAIR      50  46  86 S3        30.14R
KEENE          FAIR      54  49  83 CALM      30.13R
MT WASHINGTON  FOG       34  34 100 N21G33      N/A  VSB 0   WCI  22
PLYMOUTH       FAIR      48  46  92 CALM      30.14R
WHITEFIELD     FAIR      43  40  89 CALM      30.14R

$$

_____REGIONAL QUEBEC LOCATIONS_____


CITY           SKY/WX    TMP DP  RH WIND       PRES   REMARKS
MONTREAL       PTCLDY    55  50  82 SW6       30.12F
QUEBEC CITY    PTCLDY    50  48  93 W5        30.10R
SHERBROOKE     CLEAR     48  45  87 W3        30.12R

_____REGIONAL ONTARIO LOCATIONS_____


CITY           SKY/WX    TMP DP  RH WIND       PRES   REMARKS
OTTAWA         PTCLDY    55  50  82 S6        30.13R

______KEY______
VSB  - VISIBILITY IN MILES
WCI  - WIND CHILL INDEX
HX   - HEAT INDEX
$$
NNNN




USA.gov is the U.S. government's official web portal to all federal, state and local government web resources and services.